Weather in Krasnaya Belarus

Belarus     53°25′13″N   30°09′23″E
temp.,
°C
wind,
m/s
gust,
m/s
humid.,
%
clouds,
%
prec.,
mm/h
press.,
hPa
HPBL,
m
17 september, fri
fri1700:00+9ese4864100 0.0 1018274
03:00+7ese4889100 2.8 1018294
06:00+6ese61195100 5.9 1016305
09:00+7e51194100 12.5 1015526
12:00+7ese71296100 8.9 1014515
15:00+7e71197100 18.8 1013441
18:00+7e61196100 1.4 1013494
21:00+7ene71396100 1.4 1013527
18 september, sat
sat1800:00+7e81594100 0.1 1013625
03:00+7ene81591100 0.3 1013621
06:00+7ene91693100 0.6 1012658
09:00+6ene91893100 1.0 1011700
12:00+6ene91894100 5.6 1011741
15:00+6ene101893100 11.8 1010829
18:00+6ene101895100 13.8 1008763
21:00+7ene101894100 25.5 1008805
19 september, sun
sun1900:00+7e91694100 1.1 1007795
03:00+8e71297100 2.1 1007615
06:00+8e51098100 0.3 1007539
09:00+8e4798100 0.5 1008482
12:00+10e5694100 0.1 1009468
15:00+9ene4695100 0.1 1009425
18:00+8ne5795100 0.0 1009406
21:00+8ne5996100 0.0 1009466
20 september, mon
mon2000:00+7ne61195100 0.0 1008498
03:00+7ne61095100 0.1 1008482
06:00+7ne61296100 1.5 1008525
09:00+7ne61195100 5.0 1009585
12:00+7ne61195100 1.3 1009631
15:00+7nne51095100 2.8 1010566
18:00+6nne5995100 2.1 1011519
21:00+6nne5995100 2.4 1012496
21 september, tue
tue2100:00+6nne4895100 0.3 1011462
03:00+6nne4796100 0.6 1011386
06:00+6nne3696100 0.5 1011383
09:00+5n4596100 1.3 1011358
12:00+5nnw4595100 1.3 1012412
15:00+5nnw4494100 1.6 1012752
18:00+4nw4697100 0.6 1012655
21:00+4nw4698100 0.9 1013652